Location: Unspecified
(41.5467°N, 0.0000°E)
Time: 01:06:43
(UTC+00:00)

Burner II No. 8 - Visible Passes

Search period start: 04 April 2026 00:00
Search period end: 14 April 2026 00:00
Orbit: 767 x 810 km, 98.8° (Epoch: 29 March)

Date Brightness Start Highest point End Pass type
(mag) Time Alt. Az. Time Alt. Az. Time Alt. Az.
4 Apr 9.6 01:48:18 21° ENE 01:48:41 22° ENE 01:52:29 10° NNE visible
4 Apr 8.1 03:28:58 40° WNW 03:28:58 40° WNW 03:32:41 10° NNW visible
5 Apr 10.3 01:17:41 11° ENE 01:19:03 12° ENE 01:20:53 10° NE visible
5 Apr 7.6 02:58:21 69° N 02:58:21 69° N 03:02:49 10° NNW visible
6 Apr 8.3 02:27:43 47° ENE 02:27:45 47° ENE 02:32:38 10° N visible
6 Apr 8.9 04:08:24 19° WNW 04:08:24 19° WNW 04:11:11 10° NW visible
7 Apr 9.4 01:57:06 24° E 01:57:57 26° ENE 02:02:06 10° N visible
7 Apr 8.1 03:37:47 38° W 03:37:47 38° W 03:41:56 10° NNW visible
8 Apr 10.1 01:26:29 12° E 01:28:17 14° ENE 01:30:56 10° NNE visible
8 Apr 7.3 03:07:09 76° W 03:07:09 76° W 03:12:10 10° NNW visible
9 Apr 8.0 02:36:32 54° E 02:37:03 57° ENE 02:42:05 10° N visible
9 Apr 9.0 04:17:12 17° W 04:17:12 17° W 04:20:07 10° NW visible
10 Apr 9.1 02:05:54 27° E 02:07:13 30° ENE 02:11:40 10° N visible
10 Apr 8.2 03:46:35 32° W 03:46:35 32° W 03:51:08 10° NNW visible
11 Apr 10.0 01:35:17 13° E 01:37:31 17° ENE 01:40:45 10° NNE visible
11 Apr 7.4 03:15:57 60° SW 03:16:24 63° WSW 03:21:30 10° NNW visible
12 Apr 7.7 02:45:20 54° SE 02:46:23 69° ENE 02:51:30 10° N visible
12 Apr 9.1 04:26:01 14° W 04:26:18 14° W 04:28:54 10° WNW visible
13 Apr 8.8 02:14:42 28° ESE 02:16:30 37° ENE 02:21:11 10° N visible
13 Apr 8.4 03:55:23 26° WSW 03:55:58 27° W 04:00:17 10° NW visible
